Regional Weather Roundup
Issued by NWS

Home | Current Version | Previous Version | Text Only | Print | Product List | Glossary On
Versions: 1 2 3 4 5 6 7 8 9 10 11 12 13 14 15 16 17 18 19 20 21 22 23 24 25 26 27
000
ASUS42 KTBW 250917
RWRFL
FLORIDA REGIONAL WEATHER ROUNDUP
NATIONAL WEATHER SERVICE TAMPA BAY RUSKIN FL
500 AM EDT SUN JUN 25 2017

NOTE: "FAIR" INDICATES FEW OR NO CLOUDS BELOW 12,000 FEET WITH NO
SIGNIFICANT WEATHER AND/OR OBSTRUCTIONS TO VISIBILITY.

FLZ001>010-012>015-112-114-115-251000-
PANHANDLE FLORIDA

CITY           SKY/WX    TMP DP  RH WIND       PRES   REMARKS
PENSACOLA      CLOUDY    79  73  82 NW5       30.06S
PENSACOLA NAS  CLOUDY    78  74  87 NW3       30.05F
MILTON NAS     PTCLDY    74  73  97 NW3       30.06
CRESTVIEW      PTCLDY    74  72  93 CALM      30.07S
DUKE FIELD     MOCLDY    76  75  96 S6        30.06S
VALPARAISO     MOCLDY    79  76  91 CALM      30.06R
MARY ESTHER    DRIZZLE   77  73  88 CALM      30.04
PANAMA CITY    FAIR      76  74  93 NW3       30.05R
TYNDALL AFB    PTCLDY    81  75  83 W8        30.06S
APALACHICOLA   CLEAR     77  77 100 W5        30.05S

STATION/POSITION SKY/WX   TEMP    WIND        PRES    WAVE   SWELL
                          AIR SEA DIR/SP/G            HT/PER HT/PER
                          (F)     (DEG/KT/KT) (MB)    (FT/S) (FT/S)
30.1N   87.6W              81 83  310/  8/  8 1017.5S   2/ 6   2/ 6
29.2N   88.2W              82 83  240/  6/  8 1018.0F   2/ 6   2/ 6
28.8N   86.0W              81 82  250/  4/  6 1017.8F   2/ 7   2/ 7
PANAMA CITY BEAC           81 84  250/ 12/ 13 1018.1R
TOWER C                    80     270/  7/  8 1018.8R
28.5N   84.5W              81 83  190/  2/  4 1018.2F   2/ 6   2/ 6

$$
FLZ011-016>038-118-127-128-134-139-239-251000-
NORTH FLORIDA

CITY           SKY/WX    TMP DP  RH WIND       PRES   REMARKS
MARIANNA       CLEAR     77  76  96 SW6       30.04S
TALLAHASSEE    CLEAR     75  74  96 CALM      30.05S
PERRY          PTCLDY    73  72  97 CALM      30.07S FOG
CROSS CITY     CLEAR     73  72  94 CALM      30.07S
LAKE CITY      FAIR      72  72 100 CALM      30.08S
GAINESVILLE    CLEAR     74  72  93 CALM      30.08S
WILLISTON      CLEAR     75  75 100 CALM      30.08S
PALATKA        MOCLDY    77  77 100 CALM      30.08S
MAYPORT NAS    PTCLDY    77  75  93 SE5       30.07S
JACKSONVILLE   MOCLDY    75  74  96 S5        30.06S
JAX NAS        PTCLDY    79  73  82 W6        30.07F
FERNANDINA BEA FAIR      79  73  83 SW5       30.05S
ST AUGUSTINE   MOCLDY    77  75  93 SW5       30.08S
PALM COAST     CLOUDY    76  76 100 SW3       30.07F

STATION/POSITION SKY/WX   TEMP    WIND        PRES    WAVE   SWELL
                          AIR SEA DIR/SP/G            HT/PER HT/PER
                          (F)     (DEG/KT/KT) (MB)    (FT/S) (FT/S)
SHELL POINT      NOT AVBL
KEATON BEACH               82     260/  9/ 10 1017.8R
CEDAR KEY                  83     230/  3/  3 1018.7F
FERNANDINA                 78 84  170/  3/  5 1018.7R
30.7N   81.3W                 80                N/A     3/ 9
MAYPORT                    79 82  190/  3/  6 1018.6F
31.4N   80.9W              82 82  230/ 10/ 12 1017.1F   3/ 5   2/ 5
ST AUGUSTINE               77 77  220/  3/  5 1018.5F

$$
FLZ040-043>046-052-053-057-058-063-144-251000-
INTERIOR CENTRAL FLORIDA

CITY           SKY/WX    TMP DP  RH WIND       PRES   REMARKS
OCALA          CLEAR     75  74  96 CALM      30.08F
THE VILLAGES     N/A     79  79 100 CALM      29.98F
LEESBURG       CLOUDY    81  76  84 CALM      30.09S
SANFORD        CLOUDY    78  74  87 S3        30.08S
ORLANDO EXEC   CLOUDY    79  78  97 E3        30.09R
ORLANDO INTL   CLOUDY    76  76 100 E3        30.08F
KISSIMMEE      CLOUDY    80  76  87 E3        30.09S
WINTER HAVEN   CLOUDY    79  74  84 CALM      30.10R
LAKELAND       CLEAR     77  77 100 CALM      30.09S
BARTOW         FAIR      73 N/A N/A CALM      30.09S
SEBRING        FAIR      77  73  88 CALM      30.09R

$$
FLZ041-047-054-059-064-141-147-251000-
EAST CENTRAL FLORIDA

CITY           SKY/WX    TMP DP  RH WIND       PRES   REMARKS
DAYTONA BEACH  CLOUDY    77  73  87 SW6       30.07F
DELAND         CLOUDY    77  73  88 SW6       30.07F
JFK SPACE CTR  CLEAR     78  77  96 SW3       30.08S
CAPE CANAVERAL CLEAR     77  74  90 S5        30.07F
PATRICK AFB    CLEAR     79  77  94 S5        30.09S
MELBOURNE      CLEAR     78  75  90 S6        30.08F
VERO BEACH     CLEAR     75  73  93 CALM      30.09F
FT PIERCE      PTCLDY    72  71  97 CALM      30.09S
STUART         CLEAR     77  77 100 CALM      30.10F

STATION/POSITION SKY/WX   TEMP    WIND        PRES    WAVE   SWELL
                          AIR SEA DIR/SP/G            HT/PER HT/PER
                          (F)     (DEG/KT/KT) (MB)    (FT/S) (FT/S)
28.5N   80.2W              80 80  220/  8/ 10 1020.1R   2/ 9   2/ 9
28.9N   78.5W              82 83  180/ 10/ 12 1019.1R   4/ 8   3/ 8
TRIDENT PIER               80 83  210/  5/  7 1020.3F
28.4N   80.5W                 78                N/A     2/ 4
27.5N   80.2W                 78                N/A     1/ 8

$$
FLZ050-056-061-142-242-148-248-149-249-151-251-155-255-
160-260-251000-
WEST CENTRAL FLORIDA

CITY           SKY/WX    TMP DP  RH WIND       PRES   REMARKS
CRYSTAL RIVER  FAIR      75  73  94 CALM      30.08S
INVERNESS      FAIR      73  73 100 CALM      30.09S
BROOKSVILLE    CLOUDY    78  75  90 CALM      30.09S
CLEARWATER AIR MOCLDY    79  77  94 CALM      30.07S
ST PETE CLEARW MOCLDY    81  76  84 CALM      30.07F
TAMPA INTL     NOT AVBL
TAMPA EXEC     CLEAR     79  75  89 CALM      30.09S FOG
PLANT CITY     CLEAR     77  77 100 MISG      30.11R
MACDILL AFB    CLEAR     76  76  98 N3        30.07F
PETER O KNIGHT PTCLDY    81  79  94 CALM      30.08S
ST PETERSBURG  PTCLDY    82  76  81 N3        30.06S
SARASOTA       MOCLDY    78  75  90 NE3       30.06S
VENICE         CLOUDY    81  75  83 CALM      30.08R

STATION/POSITION SKY/WX   TEMP    WIND        PRES    WAVE   SWELL
                          AIR SEA DIR/SP/G            HT/PER HT/PER
                          (F)     (DEG/KT/KT) (MB)    (FT/S) (FT/S)
27.3N   84.2W                 83                N/A     2/ 6
CLEARWATER BEACH           82 86  330/  2/  4 1018.6F
MIDDLE TAMPA BAY           81     170/  2/  2 1018.5F
VENICE                     80 87  110/  1/  2 1018.6R

$$
FLZ066-069-070-075>078-162-262-165-265-251000-
SOUTHWEST FLORIDA AND KEYS

CITY           SKY/WX    TMP DP  RH WIND       PRES   REMARKS
PUNTA GORDA    PTCLDY    77  76  96 CALM      30.10R
FT MYERS       PTCLDY    77  77 100 CALM      30.07S
SOUTHWEST INTL PTCLDY    77  75  93 NE5       30.08R
NAPLES         CLEAR     78  75  90 NE3       30.07S
MARCO ISLAND   PTCLDY    77  75  94 NE3       30.07S
IMMOKALEE      FAIR      75  75 100 E3        30.08F
MARATHON       PTCLDY    83  77  82 SE8       30.05S
KEY WEST NAS   MOCLDY    82  77  84 SE13      30.05S
KEY WEST INTL  MOCLDY    83  76  79 E14       30.05F

STATION/POSITION SKY/WX   TEMP    WIND        PRES    WAVE   SWELL
                          AIR SEA DIR/SP/G            HT/PER HT/PER
                          (F)     (DEG/KT/KT) (MB)    (FT/S) (FT/S)
NAPLES                        87   40/  2/  4 1018.2F
DRY TORTUGAS               83     120/ 14/ 15 1017.6F
SAND KEY                   82     130/ 14/ 16 1018.1F
LONG KEY                          160/ 13       N/A
MOLASSES REEF              82 83  100/ 11/ 12 1018.1F

$$
FLZ067-068-071>074-168-172>174-251000-
SOUTHEAST FLORIDA

CITY           SKY/WX    TMP DP  RH WIND       PRES   REMARKS
W PALM BEACH   PTCLDY    81  74  79 CALM      30.09S
FT LAUDER-EXEC PTCLDY    76  74  93 E8        30.07S
FT LAUDERDALE  PTCLDY    82  76  81 SE9       30.06S
POMPANO BEACH  PTCLDY    83  76  79 E7        30.07S
PEMBROKE PINES PTCLDY    82  74  76 SE5       30.08S
OPA LOCKA      PTCLDY    82  76  81 SE6       30.07F
MIAMI          PTCLDY    83  75  77 SE10      30.07F
WEST KENDALL   CLEAR     82  74  76 SE6       30.07S
HOMESTEAD      MOCLDY    81  77  89 E7        30.06F

STATION/POSITION SKY/WX   TEMP    WIND        PRES    WAVE   SWELL
                          AIR SEA DIR/SP/G            HT/PER HT/PER
                          (F)     (DEG/KT/KT) (MB)    (FT/S) (FT/S)
PORT EVERGLADES            83     120/  6/ 11 1018.2F
VIRGINIA KEY                      120/  8/ 11   N/A
LAKE WORTH                 82 82  140/  8/  9 1019.5S
FOWEY ROCKS                82 82  120/ 14/ 15 1018.7F
SETTLEMENT POINT           80     130/  6/  7 1018.9R

$$





USA.gov is the U.S. government's official web portal to all federal, state and local government web resources and services.